WC4R Weather Reports


Display with metric or nautical units.
time (UTC)temp
F
wind
direction
speed
MPH
gust
MPH
rain 1hr
in
rain 24hr
in
rain mn
in
humidity
%
barometer
mb
20260504011004 52 136 0.0 0.0 0.00 0.00 0.00 61 1015.5
20260504010004 52 4 0.0 0.0 0.00 0.00 0.00 59 1015.5
20260504005004 53 0 0.0 0.0 0.00 0.00 0.00 57 1015.5
20260504004004 54 0 0.0 0.0 0.00 0.00 0.00 54 1014.8
20260504003004 55 0 0.0 0.0 0.00 0.00 0.00 52 1014.8
20260504002004 56 0 0.0 0.0 0.00 0.00 0.00 50 1014.8
20260504001003 56 0 0.0 0.0 0.00 0.00 0.00 48 1014.8
20260504000003 57 0 0.0 0.0 0.00 0.00 0.00 46 1014.8
20260503235003 58 0 0.0 0.0 0.00 0.00 0.00 45 1014.8
20260503234003 58 0 0.0 0.0 0.00 0.00 0.00 45 1014.7
20260503233005 59 0 0.0 0.0 0.00 0.00 0.00 44 1014.7
20260503232003 59 0 0.0 0.0 0.00 0.00 0.00 47 1014.7
20260503231004 60 0 0.0 0.0 0.00 0.00 0.00 44 1014.7
20260503230004 60 0 0.0 0.0 0.00 0.00 0.00 42 1014.7
20260503225004 61 0 0.0 0.0 0.00 0.00 0.00 44 1014.7
20260503222004 61 0 0.0 0.0 0.00 0.00 0.00 44 1015.1
20260503221004 61 0 0.0 0.0 0.00 0.00 0.00 43 1015.1
20260503220005 61 0 0.0 1.0 0.00 0.00 0.00 45 1015.1
20260503213006 62 10 1.0 9.0 0.00 0.00 0.00 40 1014.9
20260503151004 60 356 0.0 6.0 0.00 0.00 0.00 45 1017.0
20260503131004 54 14 5.0 14.0 0.00 0.00 0.00 55 1016.9
20260503081003 50 3 0.0 3.0 0.00 0.00 0.00 75 1012.6
20260503071004 49 0 0.0 0.0 0.00 0.00 0.00 85 1012.2
20260503055004 48 22 0.0 0.0 0.00 0.00 0.00 88 1011.9
20260503053005 48 22 0.0 0.0 0.00 0.00 0.00 88 1011.9
20260503052005 48 22 0.0 0.0 0.00 0.00 0.00 88 1011.9
20260503051003 48 22 0.0 0.0 0.00 0.00 0.00 88 1011.9
20260503050005 48 22 0.0 0.0 0.00 0.00 0.00 88 1011.9
20260503045004 48 22 0.0 0.0 0.00 0.00 0.00 87 1011.9
20260503044004 48 22 0.0 0.0 0.00 0.00 0.00 87 1011.9
20260503043005 48 22 0.0 0.0 0.00 0.00 0.00 86 1012.1
20260503042004 48 22 0.0 0.0 0.00 0.00 0.00 85 1012.0
20260503041004 48 22 0.0 0.0 0.00 0.00 0.00 84 1012.0
20260503040004 49 22 0.0 0.0 0.00 0.00 0.00 84 1012.0
20260503035004 49 22 0.0 0.0 0.00 0.00 0.00 83 1011.8
20260503034003 49 22 0.0 0.0 0.00 0.00 0.00 83 1011.8
20260503032004 50 21 0.0 0.0 0.00 0.00 0.00 82 1011.8
20260503031003 51 19 0.0 0.0 0.00 0.00 0.00 82 1011.8
20260503030004 51 19 0.0 0.0 0.00 0.00 0.00 80 1010.4
20260503024004 51 19 0.0 0.0 0.00 0.00 0.00 79 1010.4
20260503023004 52 19 0.0 0.0 0.00 0.00 0.00 78 1010.4
20260503022004 52 19 0.0 0.0 0.00 0.00 0.00 78 1010.4
20260503021004 52 19 0.0 0.0 0.00 0.00 0.00 78 1010.4
20260503015003 52 19 0.0 0.0 0.00 0.00 0.00 76 1010.4
20260503014004 53 19 0.0 0.0 0.00 0.00 0.00 74 1010.4
20260503013005 53 19 0.0 0.0 0.00 0.00 0.00 73 1010.4
20260503012003 53 19 0.0 0.0 0.00 0.00 0.00 75 1010.4